North Las Vegas, NV

12:49 AM PDT on May 25, 2017 (GMT -0700)
North Las Vegas

Weather History for KVGT - August, 2013

Change the Weather History Date:

Monday, August 26, 2013

  Actual Average Record
Temperature  
Mean Temperature 73 °F 88 °F  
Max Temperature 75 °F 100 °F 108 °F (2001)
Min Temperature 71 °F 75 °F 70 °F (2013)
Degree Days  
Heating Degree Days 0 0  
Month to date heating degree days 0  
Since 1 July heating degree days 0  
Cooling Degree Days 8 22  
Month to date cooling degree days 640  
Year to date cooling degree days 2536  
Growing Degree Days 23 (Base 50)    
Moisture  
Dew Point 65 °F    
Average Humidity 74    
Maximum Humidity 84    
Minimum Humidity 64    
Precipitation  
Precipitation 0.15 in 0.02 in 0.15 in (2013)
Month to date precipitation 0.40  
Year to date precipitation 3.51  
Sea Level Pressure  
Sea Level Pressure 30.04 in    
Wind  
Wind Speed 2 mph (SE)    
Max Wind Speed 10 mph    
Max Gust Speed -    
Visibility 9 miles    
Events Rain    
T = Trace of Precipitation, MM = Missing Value Source: NWS Daily Summary

Daily Weather History Graph

Daily Weather History Graph

Search for Another Location

Airport or City:

Trip Planner

Search our weather history database for the weather conditions in past years. The results will help you decide how hot, cold, wet, or windy it might be!

Date:

Astronomy

Aug. 26, 2013 Rise Set
Actual Time 6:07 AM PDT 7:16 PM PDT
Civil Twilight 5:41 AM PDT 7:42 PM PDT
Nautical Twilight 5:09 AM PDT 8:14 PM PDT
Astronomical Twilight 4:36 AM PDT 8:47 PM PDT
Moon 10:42 PM PDT (8/26) 12:01 PM PDT (8/26)
Length of Visible Light 14h 01m
Length of Day
13h 08m
Waning Gibbous, 65% of the Moon is Illuminated
Aug 26
Waning Gibbous
Aug 28
Last Quarter
Sep 5
New
Sep 12
First Quarter
Sep 19
Full

Hourly Weather History & Observations

Time (PDT) Temp. Dew Point Humidity Pressure Visibility Wind Dir Wind Speed Gust Speed Precip Events Conditions
12:53 AM 73.9 °F 66.9 °F 79% 30.05 in 10.0 mi Calm Calm - N/A   Clear
1:53 AM 73.9 °F 66.0 °F 76% 30.04 in 10.0 mi Calm Calm - N/A   Clear
2:53 AM 73.9 °F 64.9 °F 73% 30.04 in 10.0 mi Calm Calm - N/A   Clear
3:53 AM 73.9 °F 64.9 °F 73% 30.04 in 10.0 mi Calm Calm - N/A   Clear
4:53 AM 73.9 °F 64.9 °F 73% 30.06 in 10.0 mi Calm Calm - N/A   Clear
5:53 AM 73.0 °F 66.0 °F 79% 30.06 in 10.0 mi SSE 3.5 mph - N/A   Partly Cloudy
6:53 AM 73.0 °F 66.0 °F 79% 30.07 in 10.0 mi Calm Calm - N/A   Mostly Cloudy
7:53 AM 73.9 °F 66.0 °F 76% 30.08 in 10.0 mi SSE 3.5 mph - N/A   Partly Cloudy
8:53 AM 75.0 °F 64.9 °F 71% 30.08 in 10.0 mi ESE 8.1 mph - N/A   Partly Cloudy
9:53 AM 75.0 °F 64.0 °F 69% 30.08 in 10.0 mi ESE 9.2 mph - 0.01 in   Clear
10:53 AM 75.9 °F 64.0 °F 67% 30.08 in 10.0 mi ESE 8.1 mph - N/A   Clear
11:53 AM 75.0 °F 64.0 °F 69% 30.08 in 10.0 mi ESE 10.4 mph - 0.00 in   Overcast
12:53 PM 73.9 °F 66.0 °F 76% 30.08 in 10.0 mi SE 10.4 mph - 0.01 in Rain Light Rain
1:53 PM 73.9 °F 66.0 °F 76% 30.05 in 10.0 mi SE 6.9 mph - 0.00 in Rain Light Rain
2:53 PM 73.9 °F 64.0 °F 71% 30.05 in 7.0 mi SW 5.8 mph - 0.02 in Rain Light Rain
3:13 PM 71.6 °F 66.2 °F 83% 30.06 in 2.0 mi SW 3.5 mph - 0.07 in Rain Rain
3:23 PM 71.6 °F 66.2 °F 83% 30.05 in 3.0 mi Calm Calm - 0.10 in Rain Rain
3:53 PM 73.0 °F 66.0 °F 79% 30.02 in 10.0 mi NNW 4.6 mph - 0.11 in   Mostly Cloudy
4:53 PM 73.9 °F 62.1 °F 66% 30.00 in 10.0 mi Calm Calm - N/A   Mostly Cloudy
5:53 PM 75.0 °F 62.1 °F 64% 29.99 in 10.0 mi Calm Calm - N/A   Clear
6:53 PM 75.0 °F 62.1 °F 64% 29.98 in 10.0 mi Calm Calm - N/A   Partly Cloudy
7:53 PM 73.9 °F 64.0 °F 71% 29.98 in 10.0 mi Calm Calm - N/A   Scattered Clouds
8:53 PM 73.9 °F 64.9 °F 73% 29.99 in 10.0 mi Calm Calm - N/A   Partly Cloudy
9:53 PM 73.0 °F 64.9 °F 76% 30.00 in 10.0 mi Calm Calm - N/A   Clear
10:53 PM 72.0 °F 66.0 °F 81% 29.99 in 10.0 mi Calm Calm - N/A   Clear
11:53 PM 71.1 °F 66.0 °F 84% 30.00 in 10.0 mi SE 3.5 mph - N/A   Clear